Volver al catálogo

STARLINK-35054

ActivoComunicacionesSSO
NORAD 65383·PAYLOAD·🇺🇸 United States

Lanzado Aug 30, 2025 desde Vandenberg Space Force Base

Loading…

Próximos Pases (próximas 24 horas)

TLE

ActualizadoSource: CelesTrak SupGP

Época: Sep 14, 2026, 22:26 UTC

1 65383C 25191E   26257.93520833  .00055616  00000+0  17264-2 0  2579
2 65383  97.2838 124.0004 0001676  97.6199 247.2395 15.33412337    11

Sigue STARLINK-35054 en tiempo real con AllMySat

Download on the App Store